Date,TemperatureHighF,TemperatureAvgF,TemperatureLowF,DewpointHighF,DewpointAvgF,DewpointLowF,HumidityHigh,HumidityAvg,HumidityLow,PressureMaxIn,PressureMinIn,WindSpeedMaxMPH,WindSpeedAvgMPH,GustSpeedMaxMPH,PrecipitationSumIn
2014-1-1,48.2,36.3,29.7,39.6,34.1,29.3,99,92,72,29.20,28.96,12,3,12,0.00
2014-1-2,36.0,21.5,7.5,35.8,21.3,7.3,99,99,99,29.31,28.84,5,0,8,0.05
2014-1-3,31.6,12.8,-2.0,23.9,11.2,-2.2,99,93,69,29.46,29.12,0,0,0,0.01
2014-1-4,44.2,30.7,17.2,32.5,24.5,16.0,96,78,62,29.12,28.93,18,5,18,0.02
2014-1-5,37.8,30.0,6.4,35.8,29.3,6.3,99,97,76,28.97,28.54,13,1,13,0.33
2014-1-6,6.3,-6.9,-11.7,6.1,-7.4,-11.9,99,97,89,29.37,28.94,0,0,0,0.00
2014-1-7,14.0,1.8,-10.3,9.3,0.4,-10.5,99,94,80,29.40,29.26,0,0,0,0.00
2014-1-8,32.4,21.3,7.9,28.2,20.4,7.7,99,96,84,29.41,29.25,0,0,0,0.00
2014-1-9,36.0,27.6,17.8,34.5,27.3,17.6,99,99,93,29.41,29.19,8,0,8,0.01
2014-1-10,47.7,40.0,32.2,47.3,39.8,32.0,99,99,99,29.19,28.62,13,3,13,0.87
2014-1-11,50.5,40.4,32.5,48.6,40.2,32.2,99,99,99,28.81,28.47,20,6,20,0.08
2014-1-12,56.1,40.9,31.6,45.3,37.4,31.3,99,88,62,29.00,28.79,17,5,17,0.01
2014-1-13,52.0,48.1,36.0,50.9,45.3,35.6,99,91,72,28.80,28.63,27,7,27,0.00
2014-1-14,51.1,34.1,24.8,45.7,33.0,24.6,99,96,79,28.94,28.71,24,4,24,0.00
2014-1-15,29.3,23.5,14.7,27.7,21.5,14.5,99,92,76,29.08,28.92,18,5,18,0.00
2014-1-16,34.2,26.3,15.1,33.6,25.7,14.9,99,97,88,28.99,28.65,17,5,17,0.00
2014-1-17,32.4,18.7,12.0,32.2,17.4,9.5,99,94,74,29.02,28.69,23,6,23,0.00
2014-1-18,31.8,21.8,10.9,31.6,20.6,10.8,99,95,79,29.01,28.68,18,4,18,0.00
2014-1-19,39.2,29.0,18.1,33.8,27.5,18.0,99,94,80,28.97,28.71,19,6,19,0.02
2014-1-20,52.2,38.4,31.6,42.3,35.7,31.5,99,90,67,28.87,28.68,15,3,15,0.00
2014-1-21,33.8,18.3,2.7,33.6,14.3,2.1,99,85,54,29.18,28.77,27,7,27,0.00
2014-1-22,19.2,10.0,-1.1,19.0,9.7,-1.5,99,98,93,29.17,28.94,23,4,29,0.00
2014-1-23,15.1,4.5,-2.7,12.0,1.1,-5.3,99,86,64,29.59,29.09,22,5,22,0.00
2014-1-24,23.2,10.1,-4.7,17.1,5.2,-4.9,99,82,64,29.59,28.78,34,7,34,0.00
2014-1-25,41.4,25.2,12.6,36.3,18.3,4.6,99,77,42,28.90,28.56,32,9,32,0.21
2014-1-26,51.6,31.6,10.4,40.8,24.5,3.6,94,75,63,28.90,28.52,24,6,24,0.00
2014-1-27,38.1,12.1,0.0,34.7,4.2,-6.9,99,71,54,29.39,28.66,46,7,46,0.02
2014-1-28,22.1,4.8,-6.2,4.5,-3.5,-9.4,92,70,44,29.42,29.27,11,2,11,0.00
2014-1-29,31.1,14.9,2.8,15.4,6.3,-1.5,88,70,50,29.30,29.17,15,4,15,0.00
2014-1-30,40.3,26.4,14.5,19.8,13.0,7.0,72,58,43,29.18,28.82,20,6,20,0.00
2014-1-31,43.9,36.8,33.3,35.1,22.5,17.2,99,57,46,29.08,28.93,14,2,14,0.00